User: anonymous   Login
Location: Newark
(17.9939°S, 31.0481°E)
Time: 09:40:30
(UTC+00:00)
Language:

Transit 2A - Orbit

View from above orbital plane
View from above orbital plane
View from above satellite
View from above satellite

Ground track
Ground track

The orbit data is extracted from the following two-line orbital elements,

1    45U 60007A   19317.90842429 -.00000017 +00000-0 +22655-4 0  9994
2    45 066.6949 231.5397 0248747 113.9915 248.7442 14.33655274034796
Epoch (UTC): 13 November 2019 21:48:07
Eccentricity: 0.0248747
inclination: 66.6949°
perigee height: 601 km
apogee height: 957 km
right ascension of ascending node: 231.5397°
argument of perigee: 113.9915°
revolutions per day: 14.33655274
mean anomaly at epoch: 248.7442°
orbit number at epoch: 3479

The dashed part of the orbit path shows where the satellite is in the earth's shadow,  

DLR